CZ-3B DEB, 42474

Orbit data source: Space-Track

CZ-3B DEB, 42474 is space debris in HEO originally from a launch on Mon, 19 Dec 2011 UTC launched from the Xichang Space Center, China (XSC). Debris objects in space refer to the collection of defunct objects orbiting the Earth. Examples of debris include non-operational satellites, rocket bodies, and fragments generated from explosions, collisions, or faulty payload assembly.

Loading next visibility...
Identifier
42474, 2011-077AP
Orbit
HEO
Country
Flag of CNCN / PRC
Related business
Manufacturer
CALT
Mission
Spacecraft
Bus & Motor
Unknown
Mass
Unknown
Launch date (UTC)
2011-12-19 (14 years ago)
Launch vehicle
Unknown
Launch site
Xichang Space Center, China (XSC)
Object type
Payload
Rocket body
Debris
Shape & HBR
Unknown
Radar Cross Section
Medium (>0.1 m² and <1 m²)

Expand to show TLE details & history
Last TLE update: 1 day ago

TLE from 1 day ago
0 CZ-3B DEB
1 42474U 11077AP  25260.03850637 -.00000089  00000-0  00000-0 0  9992
2 42474  21.8860 136.2949 7192286 347.9723   1.5826  1.66958732 64281
Epoch: 2025-09-17T00:55Z
TLE epoch observation values (Epoch: 2025-09-17T00:55:26.95Z)
Latitude
0.00059°
Longitude
126.21212°
Altitude
2,129.331 km
Speed
8.968 km/s
True Right ascension
09h 05m 10s
True Declination
0° 00' 02"
Sunlit
Object was in daylight at epoch
Visualization orbit readout
Latitude
Unknown
Longitude
Unknown
Altitude
Unknown
Speed
Unknown
Apparent Right ascension
Unknown
Apparent Declination
Unknown
Sunlit
N/A
Visualization observer readout
Local Sidereal Time
01:34:29
Azimuth
Unknown
Elevation
Unknown
Doppler factor
Unknown
Orbital elements
Apogee altitude
45,229.395 km
Perigee altitude
2,050.014 km
Semi-major axis
30,017.842 km
Eccentricity
0.71923
Inclination
21.886°
RAAN
136.2949°
Arg. of periapsis
347.9723°
True anomaly
13.83451°
Mean anomaly
1.5826°
Eccentric anomaly
5.61362°
Mean motion
0.41732 °/min
Orbital period
862.64 mins
BSTAR
0
Loading maneuver chart data...
Computing Atmospheric mass density...
Loading historical data...
Loading historical data...
Loading historical data...
Loading historical data...
Loading historical data...
Loading historical data...
Loading historical data...

Documentation

Showing up to 5 results
|